Tracking 20942 objects as of 15-Jul-2020
HD Live streaming from Space Station
objects crossing your sky now

METEOR 2-17 DEB

Track METEOR 2-17 DEB now!
10-day predictions


NORAD ID: 35368
Int'l Code: 1988-005AC
Perigee: 895.9 km
Apogee: 924.8 km
Inclination: 82.6 °
Period: 103.1 minutes
Semi major axis: 7281 km
RCS: 0.0006 m2 (small)
Launch date: January 30, 1988
Source: Commonwealth of Independent States (former USSR) (CIS)
Launch site: PLESETSK MISSILE AND SPACE COMPLEX (PKMTR)

Note: This is SATELLITE DEBRIS
aabbcc
Your satellite tracking list
Your tracking list is empty




NASA's NSSDC Master Catalog

Two Line Element Set (TLE):
1 35368U 88005AC  20196.31145768  .00000295  00000-0  19962-3 0  9995
2 35368  82.5641 214.8293 0019833 232.8785 127.0571 13.97286407676235
Source of the keplerian elements: AFSPC